| time (UTC) | temp C | wind direction | speed KPH | gust KPH | rain 1hr cm | rain 24hr cm | rain mn cm | humidity % | barometer mb |
| 20260505160353 | 24 | 260 | 6.4 | 11.3 | 0.00 | 0.00 | 0.00 | 41 | 1005.9 |
| 20260505153325 | 22 | 185 | 4.8 | 11.3 | 0.00 | 0.00 | 0.00 | 45 | 1006.4 |
| 20260505152822 | 21 | 236 | 16.1 | 22.5 | 0.00 | 0.00 | 0.00 | 45 | 1006.3 |
| 20260505152319 | 21 | 239 | 11.3 | 14.5 | 0.00 | 0.00 | 0.00 | 45 | 1006.6 |
| 20260505151814 | 21 | 179 | 1.6 | 4.8 | 0.00 | 0.00 | 0.00 | 46 | 1006.5 |
| 20260505151311 | 21 | 146 | 0.0 | 3.2 | 0.00 | 0.00 | 0.00 | 46 | 1006.8 |
| 20260505150808 | 21 | 223 | 3.2 | 4.8 | 0.00 | 0.00 | 0.00 | 45 | 1006.7 |
| 20260505150305 | 20 | 114 | 4.8 | 8.0 | 0.00 | 0.00 | 0.00 | 47 | 1006.7 |
| 20260505140229 | 17 | 176 | 4.8 | 4.8 | 0.00 | 0.00 | 0.00 | 54 | 1006.5 |
| 20260505130153 | 15 | 176 | 1.6 | 4.8 | 0.00 | 0.00 | 0.00 | 60 | 1007.4 |
| 20260505124643 | 13 | 176 | 1.6 | 3.2 | 0.00 | 0.00 | 0.00 | 65 | 1007.5 |
| 20260505124139 | 13 | 177 | 0.0 | 3.2 | 0.00 | 0.00 | 0.00 | 65 | 1007.5 |
| 20260505123635 | 13 | 175 | 4.8 | 4.8 | 0.00 | 0.00 | 0.00 | 64 | 1007.4 |
| 20260505123132 | 13 | 173 | 3.2 | 4.8 | 0.00 | 0.00 | 0.00 | 64 | 1007.0 |
| 20260505122629 | 13 | 172 | 3.2 | 3.2 | 0.00 | 0.00 | 0.00 | 64 | 1006.9 |
| 20260505122126 | 13 | 172 | 1.6 | 3.2 | 0.00 | 0.00 | 0.00 | 64 | 1006.9 |
| 20260505121623 | 13 | 172 | 4.8 | 4.8 | 0.00 | 0.00 | 0.00 | 64 | 1006.9 |
| 20260505121119 | 12 | 172 | 4.8 | 4.8 | 0.00 | 0.00 | 0.00 | 66 | 1006.8 |
| 20260505120616 | 12 | 172 | 3.2 | 3.2 | 0.00 | 0.00 | 0.00 | 67 | 1006.8 |
| 20260505120112 | 12 | 172 | 3.2 | 4.8 | 0.00 | 0.00 | 0.00 | 68 | 1007.0 |
| 20260505115606 | 12 | 172 | 3.2 | 4.8 | 0.00 | 0.00 | 0.00 | 67 | 1007.2 |
| 20260505115104 | 12 | 172 | 0.0 | 3.2 | 0.00 | 0.00 | 0.00 | 68 | 1007.5 |
| 20260505114601 | 12 | 172 | 1.6 | 3.2 | 0.00 | 0.00 | 0.00 | 68 | 1007.0 |
| 20260505114057 | 12 | 172 | 3.2 | 4.8 | 0.00 | 0.00 | 0.00 | 68 | 1007.3 |
| 20260505113553 | 12 | 172 | 0.0 | 3.2 | 0.00 | 0.00 | 0.00 | 68 | 1007.3 |
| 20260505113050 | 12 | 172 | 3.2 | 3.2 | 0.00 | 0.00 | 0.00 | 67 | 1007.2 |
| 20260505112546 | 11 | 172 | 0.0 | 3.2 | 0.00 | 0.00 | 0.00 | 69 | 1007.3 |
| 20260505112044 | 11 | 172 | 3.2 | 3.2 | 0.00 | 0.00 | 0.00 | 68 | 1007.2 |
| 20260505111538 | 11 | 172 | 3.2 | 4.8 | 0.00 | 0.00 | 0.00 | 70 | 1007.0 |
| 20260505111034 | 11 | 172 | 4.8 | 4.8 | 0.00 | 0.00 | 0.00 | 70 | 1007.1 |
| 20260505110525 | 11 | 173 | 3.2 | 3.2 | 0.00 | 0.00 | 0.00 | 70 | 1007.3 |
| 20260505101957 | 10 | 173 | 0.0 | 3.2 | 0.00 | 0.00 | 0.00 | 76 | 1007.2 |
| 20260505101450 | 10 | 173 | 0.0 | 0.0 | 0.00 | 0.00 | 0.00 | 75 | 1007.1 |
| 20260505100946 | 10 | 173 | 0.0 | 0.0 | 0.00 | 0.00 | 0.00 | 75 | 1007.2 |
| 20260505100443 | 10 | 173 | 0.0 | 3.2 | 0.00 | 0.00 | 0.00 | 74 | 1007.1 |
| 20260505095938 | 10 | 173 | 0.0 | 0.0 | 0.00 | 0.00 | 0.00 | 74 | 1007.1 |
| 20260505095430 | 10 | 170 | 3.2 | 4.8 | 0.00 | 0.00 | 0.00 | 74 | 1007.2 |
| 20260505094926 | 10 | 168 | 3.2 | 3.2 | 0.00 | 0.00 | 0.00 | 74 | 1007.2 |
| 20260505094424 | 10 | 167 | 0.0 | 3.2 | 0.00 | 0.00 | 0.00 | 75 | 1007.1 |
| 20260505093920 | 9 | 160 | 1.6 | 3.2 | 0.00 | 0.00 | 0.00 | 76 | 1007.2 |
| 20260505093417 | 9 | 160 | 3.2 | 3.2 | 0.00 | 0.00 | 0.00 | 75 | 1007.0 |
| 20260505092914 | 9 | 158 | 3.2 | 3.2 | 0.00 | 0.00 | 0.00 | 75 | 1007.2 |
| 20260505092412 | 9 | 158 | 0.0 | 0.0 | 0.00 | 0.00 | 0.00 | 75 | 1007.2 |
| 20260505091909 | 9 | 158 | 1.6 | 3.2 | 0.00 | 0.00 | 0.00 | 75 | 1007.1 |
| 20260505091406 | 9 | 158 | 0.0 | 3.2 | 0.00 | 0.00 | 0.00 | 75 | 1007.1 |
| 20260505090904 | 9 | 158 | 0.0 | 3.2 | 0.00 | 0.00 | 0.00 | 74 | 1007.2 |
| 20260505090402 | 10 | 158 | 3.2 | 3.2 | 0.00 | 0.00 | 0.00 | 74 | 1007.1 |
| 20260505085859 | 10 | 158 | 0.0 | 4.8 | 0.00 | 0.00 | 0.00 | 73 | 1007.2 |
| 20260505085357 | 10 | 143 | 1.6 | 3.2 | 0.00 | 0.00 | 0.00 | 73 | 1007.2 |
| 20260505084855 | 10 | 89 | 0.0 | 3.2 | 0.00 | 0.00 | 0.00 | 72 | 1007.4 |
| 20260505084353 | 10 | 89 | 3.2 | 3.2 | 0.00 | 0.00 | 0.00 | 72 | 1007.3 |
| 20260505083850 | 10 | 88 | 0.0 | 3.2 | 0.00 | 0.00 | 0.00 | 71 | 1007.6 |
| 20260505083348 | 10 | 89 | 3.2 | 3.2 | 0.00 | 0.00 | 0.00 | 70 | 1007.4 |
| 20260505082844 | 10 | 88 | 1.6 | 3.2 | 0.00 | 0.00 | 0.00 | 70 | 1007.5 |
| 20260505082340 | 10 | 88 | 3.2 | 3.2 | 0.00 | 0.00 | 0.00 | 69 | 1007.5 |
| 20260505081837 | 10 | 88 | 0.0 | 0.0 | 0.00 | 0.00 | 0.00 | 69 | 1007.6 |
| 20260505081333 | 10 | 88 | 0.0 | 0.0 | 0.00 | 0.00 | 0.00 | 70 | 1007.6 |
| 20260505080830 | 10 | 88 | 0.0 | 0.0 | 0.00 | 0.00 | 0.00 | 70 | 1007.6 |
| 20260505080326 | 11 | 143 | 0.0 | 0.0 | 0.00 | 0.00 | 0.00 | 68 | 1007.6 |
| 20260505075822 | 11 | 140 | 3.2 | 3.2 | 0.00 | 0.00 | 0.00 | 67 | 1007.7 |
| 20260505075319 | 11 | 204 | 3.2 | 4.8 | 0.00 | 0.00 | 0.00 | 66 | 1007.7 |
| 20260505074816 | 11 | 99 | 0.0 | 3.2 | 0.00 | 0.00 | 0.00 | 67 | 1007.6 |
| 20260505074313 | 10 | 98 | 0.0 | 3.2 | 0.00 | 0.00 | 0.00 | 68 | 1007.7 |
| 20260505073811 | 11 | 85 | 1.6 | 3.2 | 0.00 | 0.00 | 0.00 | 69 | 1007.7 |
| 20260505073309 | 11 | 85 | 1.6 | 3.2 | 0.00 | 0.00 | 0.00 | 68 | 1007.6 |
| 20260505072805 | 11 | 86 | 0.0 | 3.2 | 0.00 | 0.00 | 0.00 | 67 | 1007.5 |
| 20260505072301 | 11 | 86 | 0.0 | 3.2 | 0.00 | 0.00 | 0.00 | 66 | 1007.5 |
| 20260505071757 | 11 | 86 | 0.0 | 3.2 | 0.00 | 0.00 | 0.00 | 66 | 1007.5 |
| 20260505071254 | 11 | 130 | 0.0 | 3.2 | 0.00 | 0.00 | 0.00 | 66 | 1007.5 |
| 20260505070752 | 11 | 123 | 3.2 | 3.2 | 0.00 | 0.00 | 0.00 | 65 | 1007.5 |
| 20260505070248 | 11 | 141 | 0.0 | 3.2 | 0.00 | 0.00 | 0.00 | 64 | 1007.5 |
| 20260505065743 | 11 | 95 | 0.0 | 3.2 | 0.00 | 0.00 | 0.00 | 66 | 1007.6 |
| 20260505065241 | 11 | 118 | 0.0 | 3.2 | 0.00 | 0.00 | 0.00 | 65 | 1007.5 |
| 20260505064738 | 11 | 118 | 0.0 | 3.2 | 0.00 | 0.00 | 0.00 | 65 | 1007.7 |
| 20260505064235 | 12 | 157 | 0.0 | 3.2 | 0.00 | 0.00 | 0.00 | 63 | 1007.7 |
| 20260505063732 | 12 | 197 | 3.2 | 4.8 | 0.00 | 0.00 | 0.00 | 61 | 1007.7 |
| 20260505063228 | 13 | 206 | 4.8 | 4.8 | 0.00 | 0.00 | 0.00 | 58 | 1007.5 |
| 20260505062725 | 13 | 225 | 4.8 | 8.0 | 0.00 | 0.00 | 0.00 | 57 | 1007.5 |
| 20260505062223 | 13 | 236 | 8.0 | 8.0 | 0.00 | 0.00 | 0.00 | 56 | 1007.4 |
| 20260505061720 | 14 | 233 | 6.4 | 8.0 | 0.00 | 0.00 | 0.00 | 56 | 1007.6 |
| 20260505061218 | 13 | 246 | 8.0 | 11.3 | 0.00 | 0.00 | 0.00 | 56 | 1007.4 |
| 20260505060715 | 13 | 206 | 1.6 | 4.8 | 0.00 | 0.00 | 0.00 | 56 | 1007.6 |
| 20260505060211 | 13 | 214 | 3.2 | 4.8 | 0.00 | 0.00 | 0.00 | 57 | 1007.4 |
| 20260505055707 | 13 | 229 | 3.2 | 4.8 | 0.00 | 0.00 | 0.00 | 58 | 1007.7 |
| 20260505055204 | 13 | 209 | 4.8 | 8.0 | 0.00 | 0.00 | 0.00 | 57 | 1007.6 |
| 20260505054701 | 13 | 206 | 4.8 | 8.0 | 0.00 | 0.00 | 0.00 | 56 | 1007.7 |
| 20260505054159 | 14 | 233 | 9.7 | 11.3 | 0.00 | 0.00 | 0.00 | 55 | 1007.5 |
| 20260505053656 | 15 | 225 | 6.4 | 11.3 | 0.00 | 0.00 | 0.00 | 53 | 1007.7 |
| 20260505053153 | 15 | 241 | 12.9 | 14.5 | 0.00 | 0.00 | 0.00 | 53 | 1007.4 |
| 20260505052650 | 15 | 213 | 4.8 | 11.3 | 0.00 | 0.00 | 0.00 | 55 | 1007.5 |
| 20260505052147 | 15 | 228 | 11.3 | 11.3 | 0.00 | 0.00 | 0.00 | 53 | 1007.4 |
| 20260505051644 | 15 | 247 | 12.9 | 14.5 | 0.00 | 0.00 | 0.00 | 53 | 1007.4 |
| 20260505051142 | 15 | 248 | 8.0 | 11.3 | 0.00 | 0.00 | 0.00 | 53 | 1007.3 |
| 20260505050639 | 15 | 229 | 8.0 | 14.5 | 0.00 | 0.00 | 0.00 | 53 | 1007.5 |
| 20260505050138 | 15 | 244 | 12.9 | 19.3 | 0.00 | 0.00 | 0.00 | 52 | 1007.5 |
| 20260505041607 | 15 | 257 | 11.3 | 14.5 | 0.00 | 0.00 | 0.00 | 50 | 1007.2 |
| 20260505041105 | 15 | 234 | 11.3 | 16.1 | 0.00 | 0.00 | 0.00 | 50 | 1006.9 |
| 20260505040602 | 15 | 241 | 14.5 | 19.3 | 0.00 | 0.00 | 0.00 | 50 | 1007.0 |
| 20260505040059 | 15 | 230 | 8.0 | 11.3 | 0.00 | 0.00 | 0.00 | 51 | 1006.9 |
| 20260505035555 | 14 | 195 | 4.8 | 8.0 | 0.00 | 0.00 | 0.00 | 50 | 1006.8 |
| 20260505035052 | 14 | 194 | 6.4 | 8.0 | 0.00 | 0.00 | 0.00 | 50 | 1006.8 |
| 20260505034548 | 14 | 178 | 3.2 | 4.8 | 0.00 | 0.00 | 0.00 | 50 | 1006.6 |
| 20260505034045 | 15 | 166 | 3.2 | 3.2 | 0.00 | 0.00 | 0.00 | 50 | 1006.7 |
| 20260505033542 | 15 | 195 | 8.0 | 11.3 | 0.00 | 0.00 | 0.00 | 50 | 1006.5 |
| 20260505033040 | 16 | 157 | 3.2 | 14.5 | 0.00 | 0.00 | 0.00 | 45 | 1006.7 |
| 20260505032538 | 16 | 207 | 6.4 | 11.3 | 0.00 | 0.00 | 0.00 | 44 | 1006.5 |
| 20260505032034 | 16 | 208 | 6.4 | 8.0 | 0.00 | 0.00 | 0.00 | 43 | 1006.6 |
| 20260505031531 | 16 | 207 | 6.4 | 11.3 | 0.00 | 0.00 | 0.00 | 43 | 1006.5 |
| 20260505031027 | 16 | 209 | 4.8 | 11.3 | 0.00 | 0.00 | 0.00 | 43 | 1006.4 |
| 20260505030525 | 16 | 205 | 8.0 | 8.0 | 0.00 | 0.00 | 0.00 | 43 | 1006.5 |
| 20260505030021 | 16 | 219 | 8.0 | 11.3 | 0.00 | 0.00 | 0.00 | 45 | 1006.5 |
| 20260505025517 | 16 | 232 | 8.0 | 11.3 | 0.00 | 0.00 | 0.00 | 46 | 1006.5 |
| 20260505025016 | 16 | 207 | 6.4 | 11.3 | 0.00 | 0.00 | 0.00 | 44 | 1006.6 |
| 20260505024512 | 16 | 217 | 6.4 | 8.0 | 0.00 | 0.00 | 0.00 | 45 | 1006.7 |
| 20260505024009 | 16 | 218 | 8.0 | 8.0 | 0.00 | 0.00 | 0.00 | 47 | 1006.7 |
| 20260505023506 | 16 | 213 | 6.4 | 8.0 | 0.00 | 0.00 | 0.00 | 45 | 1006.6 |
| 20260505023004 | 16 | 211 | 4.8 | 4.8 | 0.00 | 0.00 | 0.00 | 44 | 1006.8 |
| 20260505022502 | 16 | 212 | 6.4 | 8.0 | 0.00 | 0.00 | 0.00 | 44 | 1006.6 |
| 20260505021958 | 16 | 210 | 4.8 | 8.0 | 0.00 | 0.00 | 0.00 | 43 | 1006.7 |
| 20260505021455 | 15 | 207 | 4.8 | 8.0 | 0.00 | 0.00 | 0.00 | 45 | 1006.6 |
| 20260505020950 | 15 | 198 | 4.8 | 8.0 | 0.00 | 0.00 | 0.00 | 45 | 1006.6 |
| 20260505020446 | 16 | 233 | 0.0 | 0.0 | 0.00 | 0.00 | 0.00 | 50 | 1006.5 |
| 20260505015943 | 16 | 234 | 4.8 | 8.0 | 0.00 | 0.00 | 0.00 | 43 | 1006.6 |
| 20260505015440 | 17 | 233 | 4.8 | 11.3 | 0.00 | 0.00 | 0.00 | 41 | 1006.4 |
| 20260505014937 | 17 | 219 | 8.0 | 8.0 | 0.00 | 0.00 | 0.00 | 42 | 1006.5 |
| 20260505014434 | 16 | 213 | 6.4 | 8.0 | 0.00 | 0.00 | 0.00 | 42 | 1006.3 |
| 20260505013931 | 16 | 207 | 4.8 | 4.8 | 0.00 | 0.00 | 0.00 | 42 | 1006.4 |
| 20260505013428 | 17 | 207 | 4.8 | 4.8 | 0.00 | 0.00 | 0.00 | 42 | 1006.3 |
| 20260505012926 | 17 | 207 | 4.8 | 8.0 | 0.00 | 0.00 | 0.00 | 41 | 1006.3 |
| 20260505012424 | 17 | 214 | 8.0 | 8.0 | 0.00 | 0.00 | 0.00 | 41 | 1006.2 |
| 20260505011920 | 17 | 233 | 4.8 | 8.0 | 0.00 | 0.00 | 0.00 | 42 | 1006.1 |
| 20260505011416 | 17 | 234 | 4.8 | 8.0 | 0.00 | 0.00 | 0.00 | 41 | 1006.2 |
| 20260505010913 | 17 | 212 | 4.8 | 8.0 | 0.00 | 0.00 | 0.00 | 41 | 1006.1 |
| 20260505010409 | 17 | 233 | 8.0 | 11.3 | 0.00 | 0.00 | 0.00 | 40 | 1006.2 |
| 20260505005905 | 17 | 218 | 8.0 | 8.0 | 0.00 | 0.00 | 0.00 | 41 | 1005.9 |
| 20260505005402 | 17 | 217 | 6.4 | 8.0 | 0.00 | 0.00 | 0.00 | 42 | 1005.9 |
| 20260505004859 | 17 | 217 | 8.0 | 11.3 | 0.00 | 0.00 | 0.00 | 40 | 1006.0 |
| 20260505004356 | 17 | 217 | 8.0 | 8.0 | 0.00 | 0.00 | 0.00 | 41 | 1006.0 |
| 20260505003853 | 17 | 216 | 6.4 | 8.0 | 0.00 | 0.00 | 0.00 | 41 | 1005.7 |
| 20260505003350 | 17 | 215 | 6.4 | 8.0 | 0.00 | 0.00 | 0.00 | 41 | 1005.4 |
| 20260505002846 | 17 | 213 | 6.4 | 8.0 | 0.00 | 0.00 | 0.00 | 41 | 1005.6 |
| 20260505002343 | 17 | 212 | 8.0 | 8.0 | 0.00 | 0.00 | 0.00 | 41 | 1005.3 |
| 20260505001842 | 17 | 209 | 6.4 | 8.0 | 0.00 | 0.00 | 0.00 | 41 | 1005.3 |
| 20260505001338 | 17 | 208 | 3.2 | 4.8 | 0.00 | 0.00 | 0.00 | 40 | 1005.3 |
| 20260505000835 | 17 | 208 | 3.2 | 4.8 | 0.00 | 0.00 | 0.00 | 40 | 1005.3 |
| 20260505000333 | 17 | 208 | 4.8 | 4.8 | 0.00 | 0.00 | 0.00 | 40 | 1005.2 |
| 20260504235829 | 17 | 209 | 6.4 | 8.0 | 0.00 | 0.00 | 0.00 | 39 | 1005.3 |
| 20260504235327 | 17 | 204 | 3.2 | 4.8 | 0.00 | 0.00 | 0.00 | 40 | 1005.1 |
| 20260504234823 | 18 | 204 | 6.4 | 8.0 | 0.00 | 0.00 | 0.00 | 39 | 1005.0 |
| 20260504234321 | 18 | 203 | 0.0 | 3.2 | 0.00 | 0.00 | 0.00 | 40 | 1005.0 |
| 20260504233817 | 18 | 204 | 4.8 | 4.8 | 0.00 | 0.00 | 0.00 | 39 | 1004.9 |
| 20260504233313 | 18 | 204 | 4.8 | 8.0 | 0.00 | 0.00 | 0.00 | 38 | 1005.0 |
| 20260504232810 | 18 | 226 | 4.8 | 4.8 | 0.00 | 0.00 | 0.00 | 38 | 1004.9 |
| 20260504232307 | 18 | 227 | 0.0 | 4.8 | 0.00 | 0.00 | 0.00 | 39 | 1004.8 |
| 20260504231804 | 18 | 228 | 6.4 | 8.0 | 0.00 | 0.00 | 0.00 | 38 | 1004.9 |
| 20260504231300 | 18 | 233 | 4.8 | 8.0 | 0.00 | 0.00 | 0.00 | 37 | 1004.7 |
| 20260504230756 | 18 | 233 | 4.8 | 4.8 | 0.00 | 0.00 | 0.00 | 39 | 1004.6 |
| 20260504230254 | 19 | 247 | 8.0 | 8.0 | 0.00 | 0.00 | 0.00 | 37 | 1004.6 |
| 20260504225753 | 19 | 262 | 11.3 | 11.3 | 0.00 | 0.00 | 0.00 | 36 | 1004.5 |
| 20260504225249 | 19 | 261 | 8.0 | 11.3 | 0.00 | 0.00 | 0.00 | 37 | 1004.6 |
| 20260504224746 | 20 | 245 | 6.4 | 8.0 | 0.00 | 0.00 | 0.00 | 36 | 1004.3 |
| 20260504224243 | 19 | 238 | 4.8 | 4.8 | 0.00 | 0.00 | 0.00 | 37 | 1004.2 |
| 20260504223740 | 19 | 237 | 3.2 | 4.8 | 0.00 | 0.00 | 0.00 | 38 | 1004.1 |
| 20260504223235 | 19 | 258 | 4.8 | 8.0 | 0.00 | 0.00 | 0.00 | 37 | 1004.4 |
| 20260504222733 | 19 | 243 | 6.4 | 11.3 | 0.00 | 0.00 | 0.00 | 37 | 1004.3 |
| 20260504222229 | 19 | 241 | 6.4 | 8.0 | 0.00 | 0.00 | 0.00 | 37 | 1004.3 |
| 20260504221727 | 18 | 257 | 4.8 | 8.0 | 0.00 | 0.00 | 0.00 | 38 | 1004.2 |
| 20260504221224 | 19 | 240 | 8.0 | 8.0 | 0.00 | 0.00 | 0.00 | 38 | 1004.1 |
| 20260504220720 | 18 | 258 | 8.0 | 11.3 | 0.00 | 0.00 | 0.00 | 36 | 1004.4 |
| 20260504220218 | 19 | 266 | 6.4 | 11.3 | 0.00 | 0.00 | 0.00 | 36 | 1004.2 |
| 20260504215714 | 18 | 281 | 6.4 | 8.0 | 0.00 | 0.00 | 0.00 | 35 | 1004.3 |
| 20260504215211 | 18 | 266 | 8.0 | 11.3 | 0.00 | 0.00 | 0.00 | 36 | 1004.2 |
| 20260504214707 | 18 | 255 | 8.0 | 11.3 | 0.00 | 0.00 | 0.00 | 37 | 1004.2 |
| 20260504214204 | 19 | 277 | 16.1 | 19.3 | 0.00 | 0.00 | 0.00 | 36 | 1004.2 |
| 20260504213700 | 19 | 265 | 14.5 | 19.3 | 0.00 | 0.00 | 0.00 | 35 | 1004.2 |
| 20260504213157 | 20 | 266 | 12.9 | 16.1 | 0.00 | 0.00 | 0.00 | 35 | 1004.0 |
| 20260504212654 | 20 | 317 | 11.3 | 24.1 | 0.00 | 0.00 | 0.00 | 34 | 1004.2 |
| 20260504212150 | 20 | 245 | 14.5 | 16.1 | 0.00 | 0.00 | 0.00 | 34 | 1004.1 |
| 20260504211648 | 20 | 257 | 12.9 | 16.1 | 0.00 | 0.00 | 0.00 | 35 | 1004.2 |
| 20260504211144 | 20 | 278 | 8.0 | 14.5 | 0.00 | 0.00 | 0.00 | 36 | 1004.2 |
| 20260504210642 | 20 | 250 | 11.3 | 19.3 | 0.00 | 0.00 | 0.00 | 34 | 1004.0 |
| 20260504210138 | 20 | 267 | 11.3 | 14.5 | 0.00 | 0.00 | 0.00 | 36 | 1004.0 |
| 20260504205636 | 19 | 257 | 14.5 | 16.1 | 0.00 | 0.00 | 0.00 | 36 | 1004.1 |
| 20260504205133 | 19 | 249 | 11.3 | 16.1 | 0.00 | 0.00 | 0.00 | 39 | 1004.0 |
| 20260504204632 | 19 | 289 | 16.1 | 22.5 | 0.00 | 0.00 | 0.00 | 37 | 1004.1 |
| 20260504204130 | 20 | 266 | 14.5 | 22.5 | 0.00 | 0.00 | 0.00 | 35 | 1004.1 |
| 20260504203628 | 20 | 273 | 17.7 | 22.5 | 0.00 | 0.00 | 0.00 | 36 | 1004.2 |
| 20260504203125 | 20 | 233 | 22.5 | 27.4 | 0.00 | 0.00 | 0.00 | 35 | 1004.2 |
| 20260504202620 | 19 | 325 | 16.1 | 27.4 | 0.00 | 0.00 | 0.00 | 36 | 1004.0 |
| 20260504202117 | 19 | 269 | 16.1 | 22.5 | 0.00 | 0.00 | 0.00 | 37 | 1004.3 |
| 20260504201614 | 19 | 255 | 12.9 | 24.1 | 0.00 | 0.00 | 0.00 | 38 | 1004.2 |
| 20260504201112 | 19 | 273 | 12.9 | 14.5 | 0.00 | 0.00 | 0.00 | 37 | 1004.2 |
| 20260504200609 | 18 | 266 | 17.7 | 27.4 | 0.00 | 0.00 | 0.00 | 38 | 1004.2 |
| 20260504200105 | 18 | 252 | 14.5 | 24.1 | 0.00 | 0.00 | 0.00 | 38 | 1004.4 |
| 20260504195601 | 18 | 305 | 24.1 | 30.6 | 0.00 | 0.00 | 0.00 | 39 | 1004.5 |
| 20260504195057 | 18 | 270 | 14.5 | 16.1 | 0.00 | 0.00 | 0.00 | 39 | 1004.3 |
| 20260504194554 | 19 | 266 | 17.7 | 24.1 | 0.00 | 0.00 | 0.00 | 38 | 1004.5 |
| 20260504194050 | 18 | 274 | 17.7 | 27.4 | 0.00 | 0.00 | 0.00 | 39 | 1004.8 |
| 20260504193547 | 18 | 282 | 14.5 | 16.1 | 0.00 | 0.00 | 0.00 | 39 | 1004.4 |
| 20260504193045 | 18 | 268 | 20.9 | 24.1 | 0.00 | 0.00 | 0.00 | 41 | 1004.7 |
| 20260504192543 | 18 | 310 | 17.7 | 24.1 | 0.00 | 0.00 | 0.00 | 42 | 1004.8 |
| 20260504192041 | 18 | 279 | 12.9 | 24.1 | 0.00 | 0.00 | 0.00 | 41 | 1004.6 |
| 20260504191538 | 18 | 293 | 12.9 | 16.1 | 0.00 | 0.00 | 0.00 | 41 | 1004.7 |
| 20260504191034 | 17 | 278 | 6.4 | 19.3 | 0.00 | 0.00 | 0.00 | 45 | 1004.7 |
| 20260504190531 | 17 | 311 | 3.2 | 4.8 | 0.00 | 0.00 | 0.00 | 45 | 1004.8 |
| 20260504190027 | 16 | 339 | 4.8 | 4.8 | 0.00 | 0.00 | 0.00 | 46 | 1004.8 |
| 20260504185525 | 16 | 270 | 6.4 | 14.5 | 0.00 | 0.00 | 0.00 | 46 | 1005.0 |
| 20260504185021 | 16 | 312 | 4.8 | 8.0 | 0.00 | 0.00 | 0.00 | 47 | 1005.0 |
| 20260504184516 | 16 | 272 | 8.0 | 19.3 | 0.00 | 0.00 | 0.00 | 45 | 1005.1 |
| 20260504184012 | 17 | 266 | 8.0 | 14.5 | 0.00 | 0.00 | 0.00 | 45 | 1005.1 |
| 20260504183509 | 16 | 271 | 9.7 | 14.5 | 0.00 | 0.00 | 0.00 | 46 | 1005.2 |
| 20260504183008 | 16 | 326 | 9.7 | 14.5 | 0.00 | 0.00 | 0.00 | 47 | 1005.2 |
| 20260504182504 | 17 | 323 | 9.7 | 16.1 | 0.00 | 0.00 | 0.00 | 45 | 1005.1 |
| 20260504182001 | 17 | 278 | 4.8 | 8.0 | 0.00 | 0.00 | 0.00 | 46 | 1005.1 |
| 20260504181458 | 16 | 313 | 8.0 | 16.1 | 0.00 | 0.00 | 0.00 | 48 | 1005.2 |
| 20260504180956 | 16 | 286 | 9.7 | 14.5 | 0.00 | 0.00 | 0.00 | 48 | 1005.3 |
| 20260504180455 | 16 | 277 | 8.0 | 14.5 | 0.00 | 0.00 | 0.00 | 48 | 1005.2 |
| 20260504175953 | 16 | 309 | 9.7 | 11.3 | 0.00 | 0.00 | 0.00 | 47 | 1005.1 |
| 20260504175450 | 16 | 295 | 9.7 | 14.5 | 0.00 | 0.00 | 0.00 | 46 | 1005.2 |
| 20260504174947 | 16 | 288 | 8.0 | 11.3 | 0.00 | 0.00 | 0.00 | 47 | 1005.2 |
| 20260504174445 | 16 | 315 | 4.8 | 14.5 | 0.00 | 0.00 | 0.00 | 45 | 1005.2 |
| 20260504173942 | 16 | 273 | 12.9 | 24.1 | 0.00 | 0.00 | 0.00 | 44 | 1005.0 |
| 20260504173438 | 17 | 303 | 12.9 | 24.1 | 0.00 | 0.00 | 0.00 | 42 | 1005.0 |
| 20260504172936 | 17 | 273 | 11.3 | 19.3 | 0.00 | 0.00 | 0.00 | 43 | 1005.0 |
| 20260504172432 | 16 | 283 | 11.3 | 16.1 | 0.00 | 0.00 | 0.00 | 44 | 1005.2 |
| 20260504171929 | 16 | 285 | 17.7 | 27.4 | 0.00 | 0.00 | 0.00 | 43 | 1005.3 |
| 20260504171426 | 16 | 292 | 11.3 | 24.1 | 0.00 | 0.00 | 0.00 | 43 | 1005.2 |
| 20260504170923 | 16 | 253 | 17.7 | 19.3 | 0.00 | 0.00 | 0.00 | 43 | 1005.1 |
| 20260504170419 | 16 | 284 | 16.1 | 24.1 | 0.00 | 0.00 | 0.00 | 41 | 1005.0 |